FW2524 Weather Reports


time (UTC)temp
F
wind
direction
speed
knots
gust
knots
rain 1hr
in
rain 24hr
in
rain mn
in
humidity
%
barometer
mb
20260503200038 70 295 2.6 8.7 0.00 0.00 0.00 20 1018.9
20260503194534 70 335 1.7 7.0 0.00 0.00 0.00 20 1019.1
20260503193029 69 261 2.6 10.4 0.00 0.00 0.00 21 1019.4
20260503191535 68 182 1.7 7.8 0.00 0.00 0.00 24 1019.5
20260503190022 67 63 1.7 7.8 0.00 0.00 0.00 26 1019.8
20260503184519 67 287 4.3 13.9 0.00 0.00 0.00 21 1020.0
20260503183017 67 259 1.7 9.6 0.00 0.00 0.00 23 1020.0
20260503181515 67 157 1.7 11.3 0.00 0.00 0.00 24 1020.3
20260503180012 66 230 3.5 7.0 0.00 0.00 0.00 24 1020.3
20260503174509 66 265 4.3 10.4 0.00 0.00 0.00 23 1020.5
20260503173009 66 232 0.9 7.0 0.00 0.00 0.00 23 1020.7
20260503171506 65 46 1.7 9.6 0.00 0.00 0.00 27 1021.0
20260503081540 40 240 0.0 0.0 0.00 0.00 0.00 65 1019.1
20260503071531 41 234 0.0 0.0 0.00 0.00 0.00 62 1018.4
20260503054520 43 234 0.0 1.7 0.00 0.00 0.00 60 1018.2
20260503053023 42 269 1.7 2.6 0.00 0.00 0.00 64 1018.1
20260503051517 41 272 0.0 0.0 0.00 0.00 0.00 64 1018.2
20260503050010 43 272 0.0 0.9 0.00 0.00 0.00 60 1018.1
20260503044507 44 272 0.0 0.0 0.00 0.00 0.00 58 1017.8
20260503043018 45 272 0.0 1.7 0.00 0.00 0.00 54 1017.7
20260503041503 47 272 0.0 0.0 0.00 0.00 0.00 52 1017.5
20260503040027 48 272 0.0 0.0 0.00 0.00 0.00 49 1017.3
20260503034524 49 272 0.0 0.0 0.00 0.00 0.00 47 1017.1
20260503033025 50 272 0.0 0.0 0.00 0.00 0.00 49 1017.0
20260503031515 52 272 0.0 0.0 0.00 0.00 0.00 43 1017.0
20260503030010 54 272 0.0 0.0 0.00 0.00 0.00 38 1016.9
20260503024520 55 272 0.9 3.5 0.00 0.00 0.00 34 1016.9
20260503023004 56 282 0.9 2.6 0.00 0.00 0.00 32 1016.8
20260503021602 56 311 0.9 2.6 0.00 0.00 0.00 32 1016.6
20260503020158 57 303 0.9 3.5 0.00 0.00 0.00 31 1016.4
20260503014557 57 317 2.6 7.0 0.00 0.00 0.00 30 1016.2
20260503013048 58 306 4.3 9.6 0.00 0.00 0.00 30 1015.9
20260503011546 58 5 2.6 4.3 0.00 0.00 0.00 32 1015.6
20260503010043 58 306 1.7 3.5 0.00 0.00 0.00 33 1015.2
20260503004553 59 343 0.0 3.5 0.00 0.00 0.00 33 1015.0
20260503003056 59 297 0.9 2.6 0.00 0.00 0.00 33 1014.9
20260503001535 59 355 0.9 4.3 0.00 0.00 0.00 38 1014.6
20260503000030 60 78 0.9 2.6 0.00 0.00 0.00 43 1014.4
20260502234526 60 318 0.9 7.8 0.00 0.00 0.00 45 1014.0
20260502233026 60 288 2.6 7.0 0.00 0.00 0.00 44 1013.7
20260502231554 60 355 0.0 0.0 0.00 0.00 0.00 48 1013.5
20260502230052 61 355 0.0 0.0 0.00 0.00 0.00 44 1013.2
20260502224532 62 355 0.0 0.0 0.00 0.00 0.00 44 1013.1
20260502223022 63 355 0.0 0.0 0.00 0.00 0.00 41 1013.1
20260502221517 65 355 0.0 2.6 0.00 0.00 0.00 36 1012.9
20260502220019 64 206 0.9 8.7 0.00 0.00 0.00 38 1012.8
20260502214513 63 165 0.9 3.5 0.00 0.00 0.00 38 1012.7
20260502213014 64 136 0.9 2.6 0.00 0.00 0.00 38 1012.8
20260502211512 64 300 0.0 4.3 0.00 0.00 0.00 37 1012.7
20260502210007 63 279 0.9 7.8 0.00 0.00 0.00 39 1012.9
20260502204506 63 308 1.7 7.8 0.00 0.00 0.00 37 1012.9
20260502203004 63 360 3.5 7.0 0.00 0.00 0.00 38 1013.0
20260502201557 63 67 1.7 7.8 0.00 0.00 0.00 38 1013.0